map of TPP home
TPP - Airport
Location
City:  Tarapoto, San Martín, Perú
Name:Capitán FAP Guillermo del Castillo Paredes Airport
ICAO:SPST
IATA:TPP

Details
Type:Airport (Aerodrome, Airfield)
Use:Public/Civil
Latitude:6°30'31"S (-6.508743)
Longitude:76°22'24"W (-76.373246)
Elevation:868 ft (265 m)
Variation:3.91°W (WMM2015 magnetic declination)
-0.17° annual change
Runways:1
Longest:8530 × 148 ft (2600 × 45 m), paved

Time
Time Zone:UTC-5
Local Time:

Weather
METAR:SPST 190300Z 05006KT 9999 SCT020 SCT080 26/21 Q1014 RMK BIRD HAZARD RWY 17/35 PP000
TAF:SPST 182300Z 1900/1924 VRB02KT 9999 SCT025 TX32/1919Z TN21/1911Z
FM191200 00000KT 9999 SCT020 SCT080 PROB40 1912/1914 5000 BR SCT010 BKN070
BECMG 1915/1918 05005KT SCT015 BKN070

Related Locations
Nearby:
Farthest:RDN: 12369 mi / 19906 km
Redang [Redang Airport], Redang Island (Pulau Redang), 11, MY

Find:

   beyond  
but within

Other Information
Maps:
NOTAMs:
Links:
Sources:

  
  • flag of Perú
  

Sectional Chart

Flight Planning
at skyvector.com

Satellite Image

Google Maps Satellite view

 

Copyright © 2004-2018 Karl L. Swartz. All rights reserved.
The Great Circle Mapper name and logo are trademarks of the Great Circle Mapper.
All other trademarks mentioned herein belong to their respective owners.
Please see credits for attibutions and further copyright information.

  Follow gcmap on Facebook Follow gcmap on Twitter Follow gcmap on Google+ GCmap on LinkedIn

hCard Microformat

Geo Microformat